Location: Unspecified
(0.0000°N, 0.0000°E)
Time: 02:04:49
(UTC+00:00)

Hubble Space Telescope - Pass Details

Date: 23 February 2021
Orbit: 536 x 539 km, 28.5° (Epoch: 24 February)

Event Time Altitude Azimuth Distance (km) Brightness Sun altitude
Rises 20:25:51 0° 246° (WSW) 2,669 5.4 -32.6°
Reaches altitude 10° 20:28:08 10° 249° (WSW) 1,778 4.2 -33.2°
Enters shadow 20:29:15 18° 253° (WSW) 1,360 3.5 -33.5°
